Simultaneous Nadir Overpasses (SNOs) Predictions

Prediction of SNOs between NOAA-20 and PACE Satellite Orbit:

Table of predicted SNOs for the next 14.0 days since TLE Epoch: 8/3/2024
Index Date (NOAA-20) Time (NOAA-20) Lat,Lon (NOAA-20) SZA (NOAA-20 ) Date (PACE) Time (PACE) Lat,Lon (PACE) SZA (PACE ) Distance(km) Time Diff (sec)
1 08/03/2024 21:36:21 -79.93, -2.10 114.86 08/03/2024 21:36:37 -79.93, -2.15 114.86 0.98 16
2 08/06/2024 01:13:51 81.25, 84.21 71.89 08/06/2024 01:15:03 81.94, 84.16 71.96 77.64 72
3 08/06/2024 02:02:46 -79.91, -68.54 114.31 08/06/2024 02:02:27 -79.91, -68.44 114.32 1.98 19
4 08/08/2024 05:38:29 79.98, 56.85 66.42 08/08/2024 05:39:10 79.98, 56.86 66.39 0.43 41
5 08/08/2024 06:29:08 -79.81,-134.15 113.90 08/08/2024 06:28:14 -79.80,-134.10 113.89 1.19 54
6 08/10/2024 10:04:53 79.95, -9.39 66.97 08/10/2024 10:04:58 79.94, -9.28 66.95 2.33 5
7 08/12/2024 13:40:37 -80.06, 115.56 112.19 08/12/2024 13:41:40 -80.05, 115.67 112.24 2.31 63
8 08/12/2024 14:31:15 79.85, -75.09 67.43 08/12/2024 14:30:44 79.85, -75.06 67.44 0.69 31
9 08/14/2024 18:06:57 -79.91, 50.45 111.82 08/14/2024 18:07:24 -79.91, 50.29 111.81 3.15 27
10 08/14/2024 18:57:38 79.79,-141.13 67.98 08/14/2024 18:56:30 79.79,-141.04 68.00 1.78 68



Historial Predications of SNOs between NOAA-20 and PACE
